| time (UTC) | temp F | wind direction | speed knots | gust knots | rain 1hr in | rain 24hr in | rain mn in | humidity % | barometer mb |
| 20260906031503 | 68 | 140 | 0.0 | 0.9 | 0.00 | 0.00 | 0.00 | 47 | 1018.0 |
| 20260906031003 | 68 | 144 | 0.9 | 1.7 | 0.00 | 0.00 | 0.00 | 47 | 1017.9 |
| 20260906030003 | 68 | 193 | 0.9 | 3.5 | 0.00 | 0.00 | 0.00 | 46 | 1017.7 |
| 20260906025503 | 69 | 197 | 1.7 | 0.9 | 0.00 | 0.00 | 0.00 | 46 | 1017.6 |
| 20260906025003 | 69 | 196 | 1.7 | 2.6 | 0.00 | 0.00 | 0.00 | 45 | 1017.6 |
| 20260906024503 | 69 | 198 | 1.7 | 3.5 | 0.00 | 0.00 | 0.00 | 45 | 1017.6 |
| 20260906024003 | 69 | 200 | 1.7 | 2.6 | 0.00 | 0.00 | 0.00 | 45 | 1017.5 |
| 20260906023502 | 70 | 200 | 1.7 | 2.6 | 0.00 | 0.00 | 0.00 | 44 | 1017.5 |
| 20260906022503 | 70 | 202 | 2.6 | 3.5 | 0.00 | 0.00 | 0.00 | 43 | 1017.4 |
| 20260906021503 | 71 | 199 | 3.5 | 4.3 | 0.00 | 0.00 | 0.00 | 43 | 1017.3 |
| 20260906020503 | 71 | 221 | 4.3 | 6.1 | 0.00 | 0.00 | 0.00 | 43 | 1017.4 |
| 20260906020003 | 71 | 229 | 3.5 | 7.0 | 0.00 | 0.00 | 0.00 | 42 | 1017.4 |
| 20260906014003 | 73 | 239 | 2.6 | 7.0 | 0.00 | 0.00 | 0.00 | 41 | 1017.4 |
| 20260906013503 | 73 | 231 | 3.5 | 6.1 | 0.00 | 0.00 | 0.00 | 40 | 1017.5 |
| 20260906013003 | 74 | 235 | 5.2 | 7.8 | 0.00 | 0.00 | 0.00 | 40 | 1017.5 |
| 20260906012503 | 74 | 242 | 6.1 | 9.6 | 0.00 | 0.00 | 0.00 | 40 | 1017.5 |
| 20260906012003 | 74 | 229 | 7.8 | 8.7 | 0.00 | 0.00 | 0.00 | 40 | 1017.5 |
| 20260906011503 | 74 | 233 | 7.8 | 13.0 | 0.00 | 0.00 | 0.00 | 39 | 1017.4 |
| 20260906011003 | 74 | 236 | 7.0 | 13.0 | 0.00 | 0.00 | 0.00 | 39 | 1017.5 |
| 20260906010503 | 74 | 241 | 7.8 | 11.3 | 0.00 | 0.00 | 0.00 | 39 | 1017.4 |
| 20260906010004 | 74 | 234 | 8.7 | 13.0 | 0.00 | 0.00 | 0.00 | 38 | 1017.3 |
| 20260906005503 | 74 | 239 | 8.7 | 13.0 | 0.00 | 0.00 | 0.00 | 38 | 1017.4 |
| 20260906005003 | 75 | 233 | 8.7 | 13.0 | 0.00 | 0.00 | 0.00 | 37 | 1017.3 |
| 20260906004503 | 75 | 232 | 8.7 | 15.6 | 0.00 | 0.00 | 0.00 | 36 | 1017.2 |
| 20260906002004 | 76 | 251 | 5.2 | 8.7 | 0.00 | 0.00 | 0.00 | 33 | 1017.3 |
| 20260906001503 | 76 | 241 | 6.1 | 10.4 | 0.00 | 0.00 | 0.00 | 32 | 1017.2 |
| 20260906000503 | 76 | 239 | 7.8 | 11.3 | 0.00 | 0.00 | 0.00 | 33 | 1017.2 |
| 20260905235503 | 76 | 241 | 7.0 | 13.9 | 0.00 | 0.00 | 0.00 | 34 | 1017.0 |
| 20260905234503 | 77 | 241 | 7.0 | 13.0 | 0.00 | 0.00 | 0.00 | 34 | 1016.9 |
| 20260905234003 | 77 | 245 | 7.0 | 13.0 | 0.00 | 0.00 | 0.00 | 33 | 1016.9 |
| 20260905233503 | 77 | 239 | 7.8 | 11.3 | 0.00 | 0.00 | 0.00 | 33 | 1016.9 |
| 20260905233003 | 77 | 248 | 8.7 | 13.0 | 0.00 | 0.00 | 0.00 | 33 | 1017.0 |
| 20260905232503 | 77 | 243 | 9.6 | 13.9 | 0.00 | 0.00 | 0.00 | 33 | 1016.9 |
| 20260905232004 | 77 | 244 | 8.7 | 14.8 | 0.00 | 0.00 | 0.00 | 33 | 1016.8 |
| 20260905231503 | 77 | 241 | 8.7 | 12.2 | 0.00 | 0.00 | 0.00 | 33 | 1016.8 |
| 20260905231003 | 77 | 237 | 9.6 | 13.9 | 0.00 | 0.00 | 0.00 | 32 | 1016.9 |
| 20260905230503 | 77 | 236 | 10.4 | 13.0 | 0.00 | 0.00 | 0.00 | 32 | 1016.8 |
| 20260905230004 | 77 | 241 | 11.3 | 15.6 | 0.00 | 0.00 | 0.00 | 33 | 1016.9 |
| 20260905225503 | 77 | 241 | 10.4 | 19.1 | 0.00 | 0.00 | 0.00 | 33 | 1016.8 |
| 20260905225003 | 77 | 243 | 10.4 | 15.6 | 0.00 | 0.00 | 0.00 | 32 | 1016.9 |
| 20260905224503 | 77 | 242 | 10.4 | 16.5 | 0.00 | 0.00 | 0.00 | 33 | 1016.8 |
| 20260905224003 | 78 | 236 | 9.6 | 17.4 | 0.00 | 0.00 | 0.00 | 32 | 1016.9 |
| 20260905223503 | 78 | 245 | 9.6 | 17.4 | 0.00 | 0.00 | 0.00 | 32 | 1017.0 |
| 20260905223003 | 78 | 244 | 9.6 | 14.8 | 0.00 | 0.00 | 0.00 | 32 | 1016.9 |
| 20260905222003 | 78 | 236 | 8.7 | 16.5 | 0.00 | 0.00 | 0.00 | 31 | 1016.9 |
| 20260905221003 | 78 | 241 | 10.4 | 16.5 | 0.00 | 0.00 | 0.00 | 32 | 1016.8 |
| 20260905220003 | 79 | 242 | 8.7 | 17.4 | 0.00 | 0.00 | 0.00 | 31 | 1016.8 |
| 20260905215504 | 79 | 238 | 8.7 | 17.4 | 0.00 | 0.00 | 0.00 | 30 | 1016.8 |
| 20260905214503 | 79 | 243 | 7.8 | 13.0 | 0.00 | 0.00 | 0.00 | 30 | 1016.9 |
| 20260905214004 | 78 | 242 | 7.0 | 11.3 | 0.00 | 0.00 | 0.00 | 32 | 1016.9 |
| 20260905213503 | 77 | 251 | 7.8 | 13.9 | 0.00 | 0.00 | 0.00 | 32 | 1017.1 |
| 20260905212502 | 78 | 242 | 9.6 | 13.0 | 0.00 | 0.00 | 0.00 | 32 | 1017.2 |
| 20260905211502 | 78 | 243 | 7.8 | 15.6 | 0.00 | 0.00 | 0.00 | 32 | 1017.3 |
| 20260905210502 | 78 | 238 | 9.6 | 13.9 | 0.00 | 0.00 | 0.00 | 33 | 1017.4 |
| 20260905210002 | 78 | 238 | 7.8 | 13.0 | 0.00 | 0.00 | 0.00 | 33 | 1017.6 |
| 20260905205502 | 78 | 238 | 7.8 | 13.9 | 0.00 | 0.00 | 0.00 | 33 | 1017.5 |
| 20260905205002 | 78 | 239 | 7.8 | 14.8 | 0.00 | 0.00 | 0.00 | 33 | 1017.5 |
| 20260905204502 | 78 | 238 | 7.0 | 15.6 | 0.00 | 0.00 | 0.00 | 34 | 1017.6 |
| 20260905204002 | 78 | 237 | 7.8 | 11.3 | 0.00 | 0.00 | 0.00 | 34 | 1017.6 |
| 20260905203502 | 77 | 241 | 8.7 | 11.3 | 0.00 | 0.00 | 0.00 | 34 | 1017.6 |
| 20260905202502 | 77 | 238 | 7.8 | 13.9 | 0.00 | 0.00 | 0.00 | 34 | 1017.8 |
| 20260905202002 | 77 | 239 | 8.7 | 13.0 | 0.00 | 0.00 | 0.00 | 34 | 1017.8 |
| 20260905201503 | 77 | 241 | 7.0 | 11.3 | 0.00 | 0.00 | 0.00 | 33 | 1017.8 |
| 20260905200502 | 76 | 239 | 7.8 | 11.3 | 0.00 | 0.00 | 0.00 | 34 | 1018.0 |
| 20260905200003 | 76 | 237 | 7.0 | 11.3 | 0.00 | 0.00 | 0.00 | 34 | 1018.1 |
| 20260905195002 | 76 | 244 | 6.1 | 12.2 | 0.00 | 0.00 | 0.00 | 35 | 1017.9 |
| 20260905194502 | 76 | 241 | 7.0 | 11.3 | 0.00 | 0.00 | 0.00 | 36 | 1018.0 |
| 20260905194002 | 76 | 235 | 7.0 | 13.0 | 0.00 | 0.00 | 0.00 | 37 | 1018.1 |
| 20260905193502 | 76 | 238 | 6.1 | 13.0 | 0.00 | 0.00 | 0.00 | 37 | 1018.1 |
| 20260905193002 | 76 | 245 | 7.0 | 11.3 | 0.00 | 0.00 | 0.00 | 36 | 1017.9 |
| 20260905192502 | 76 | 241 | 6.1 | 9.6 | 0.00 | 0.00 | 0.00 | 37 | 1018.0 |
| 20260905192002 | 76 | 245 | 5.2 | 12.2 | 0.00 | 0.00 | 0.00 | 38 | 1018.1 |
| 20260905191502 | 75 | 248 | 5.2 | 8.7 | 0.00 | 0.00 | 0.00 | 39 | 1018.1 |
| 20260905191002 | 75 | 240 | 5.2 | 8.7 | 0.00 | 0.00 | 0.00 | 39 | 1018.2 |
| 20260905190502 | 75 | 236 | 4.3 | 12.2 | 0.00 | 0.00 | 0.00 | 41 | 1018.2 |
| 20260905190003 | 75 | 251 | 4.3 | 6.1 | 0.00 | 0.00 | 0.00 | 40 | 1018.3 |
| 20260905185502 | 75 | 242 | 5.2 | 9.6 | 0.00 | 0.00 | 0.00 | 42 | 1018.3 |
| 20260905185003 | 74 | 244 | 4.3 | 7.8 | 0.00 | 0.00 | 0.00 | 43 | 1018.4 |
| 20260905184502 | 74 | 241 | 4.3 | 7.8 | 0.00 | 0.00 | 0.00 | 44 | 1018.4 |
| 20260905184002 | 74 | 235 | 5.2 | 9.6 | 0.00 | 0.00 | 0.00 | 44 | 1018.4 |
| 20260905183502 | 74 | 238 | 4.3 | 7.8 | 0.00 | 0.00 | 0.00 | 44 | 1018.4 |
| 20260905183003 | 74 | 242 | 3.5 | 7.8 | 0.00 | 0.00 | 0.00 | 44 | 1018.4 |
| 20260905182502 | 74 | 253 | 3.5 | 8.7 | 0.00 | 0.00 | 0.00 | 43 | 1018.4 |
| 20260905182003 | 75 | 250 | 1.7 | 9.6 | 0.00 | 0.00 | 0.00 | 43 | 1018.4 |
| 20260905181002 | 75 | 0 | 0.9 | 0.0 | 0.00 | 0.00 | 0.00 | 42 | 1018.5 |
| 20260905180502 | 75 | 335 | 0.9 | 3.5 | 0.00 | 0.00 | 0.00 | 43 | 1018.6 |
| 20260905180003 | 74 | 321 | 0.9 | 5.2 | 0.00 | 0.00 | 0.00 | 45 | 1018.6 |
| 20260905175502 | 74 | 314 | 1.7 | 4.3 | 0.00 | 0.00 | 0.00 | 46 | 1018.3 |
| 20260905175002 | 73 | 326 | 1.7 | 4.3 | 0.00 | 0.00 | 0.00 | 48 | 1018.4 |
| 20260905174502 | 72 | 348 | 0.9 | 3.5 | 0.00 | 0.00 | 0.00 | 50 | 1018.5 |
| 20260905174002 | 71 | 303 | 0.0 | 2.6 | 0.00 | 0.00 | 0.00 | 51 | 1018.4 |
| 20260905173502 | 71 | 0 | 0.9 | 0.0 | 0.00 | 0.00 | 0.00 | 51 | 1018.4 |
| 20260905173003 | 71 | 243 | 1.7 | 1.7 | 0.00 | 0.00 | 0.00 | 52 | 1018.4 |
| 20260905172503 | 71 | 251 | 0.9 | 2.6 | 0.00 | 0.00 | 0.00 | 52 | 1018.4 |
| 20260905172003 | 70 | 6 | 1.7 | 3.5 | 0.00 | 0.00 | 0.00 | 54 | 1018.6 |
| 20260905171002 | 69 | 340 | 0.9 | 1.7 | 0.00 | 0.00 | 0.00 | 57 | 1018.6 |
| 20260905170502 | 68 | 0 | 0.9 | 0.0 | 0.00 | 0.00 | 0.00 | 58 | 1018.5 |
| 20260905170002 | 67 | 306 | 0.9 | 2.6 | 0.00 | 0.00 | 0.00 | 59 | 1018.5 |
| 20260905165502 | 67 | 318 | 0.0 | 1.7 | 0.00 | 0.00 | 0.00 | 60 | 1018.5 |
| 20260905164502 | 66 | 0 | 0.9 | 0.0 | 0.00 | 0.00 | 0.00 | 62 | 1018.4 |
| 20260905163503 | 64 | 336 | 0.9 | 1.7 | 0.00 | 0.00 | 0.00 | 66 | 1018.5 |
| 20260905163003 | 64 | 339 | 0.0 | 1.7 | 0.00 | 0.00 | 0.00 | 69 | 1018.5 |
| 20260905162502 | 63 | 329 | 0.0 | 0.9 | 0.00 | 0.00 | 0.00 | 70 | 1018.4 |
| 20260905162002 | 62 | 339 | 0.0 | 0.9 | 0.00 | 0.00 | 0.00 | 72 | 1018.4 |
| 20260905161502 | 62 | 339 | 0.0 | 0.9 | 0.00 | 0.00 | 0.00 | 72 | 1018.5 |
| 20260905160502 | 61 | 0 | 0.0 | 0.0 | 0.00 | 0.00 | 0.00 | 75 | 1018.5 |
| 20260905160003 | 60 | 0 | 0.0 | 0.0 | 0.00 | 0.00 | 0.00 | 77 | 1018.6 |
| 20260905155502 | 60 | 340 | 0.0 | 0.9 | 0.00 | 0.00 | 0.00 | 79 | 1018.7 |
| 20260905155003 | 59 | 338 | 0.0 | 1.7 | 0.00 | 0.00 | 0.00 | 83 | 1018.8 |
| 20260905154502 | 58 | 337 | 0.0 | 1.7 | 0.00 | 0.00 | 0.00 | 86 | 1018.6 |
| 20260905154003 | 56 | 355 | 0.0 | 0.9 | 0.00 | 0.00 | 0.00 | 89 | 1018.6 |
| 20260905153002 | 54 | 6 | 0.0 | 0.9 | 0.00 | 0.00 | 0.00 | 90 | 1018.4 |
| 20260905152503 | 54 | 6 | 0.0 | 0.9 | 0.00 | 0.00 | 0.00 | 90 | 1018.4 |
| 20260905152003 | 53 | 0 | 0.0 | 0.0 | 0.00 | 0.00 | 0.00 | 90 | 1018.4 |
| 20260905151502 | 53 | 6 | 0.0 | 0.9 | 0.00 | 0.00 | 0.00 | 90 | 1018.4 |
| 20260905151002 | 52 | 9 | 0.0 | 0.9 | 0.00 | 0.00 | 0.00 | 90 | 1018.5 |
| 20260905150003 | 51 | 0 | 0.0 | 0.0 | 0.00 | 0.00 | 0.00 | 89 | 1018.3 |
| 20260905145502 | 50 | 55 | 0.0 | 0.9 | 0.00 | 0.00 | 0.00 | 89 | 1018.2 |
| 20260905144503 | 50 | 0 | 0.0 | 0.0 | 0.00 | 0.00 | 0.00 | 88 | 1018.2 |
| 20260905144002 | 50 | 0 | 0.0 | 0.0 | 0.00 | 0.00 | 0.00 | 88 | 1018.1 |
| 20260905143502 | 50 | 0 | 0.0 | 0.0 | 0.00 | 0.00 | 0.00 | 88 | 1018.0 |
| 20260905143003 | 49 | 0 | 0.0 | 0.0 | 0.00 | 0.00 | 0.00 | 87 | 1017.8 |
| 20260905142502 | 49 | 56 | 0.0 | 0.9 | 0.00 | 0.00 | 0.00 | 87 | 1017.9 |
| 20260905142002 | 49 | 0 | 0.0 | 0.0 | 0.00 | 0.00 | 0.00 | 87 | 1017.9 |
| 20260905141503 | 49 | 55 | 0.0 | 0.9 | 0.00 | 0.00 | 0.00 | 87 | 1017.8 |
| 20260905141003 | 49 | 56 | 0.0 | 0.9 | 0.00 | 0.00 | 0.00 | 86 | 1017.7 |
| 20260905140502 | 49 | 0 | 0.0 | 0.0 | 0.00 | 0.00 | 0.00 | 86 | 1017.7 |
| 20260905140003 | 49 | 0 | 0.0 | 0.0 | 0.00 | 0.00 | 0.00 | 86 | 1017.7 |
| 20260905135502 | 49 | 0 | 0.0 | 0.0 | 0.00 | 0.00 | 0.00 | 86 | 1017.6 |
| 20260905135002 | 50 | 0 | 0.0 | 0.0 | 0.00 | 0.00 | 0.00 | 86 | 1017.6 |
| 20260905134503 | 50 | 0 | 0.0 | 0.0 | 0.00 | 0.00 | 0.00 | 86 | 1017.5 |
| 20260905133502 | 50 | 55 | 0.0 | 0.9 | 0.00 | 0.00 | 0.00 | 86 | 1017.5 |
| 20260905133003 | 50 | 55 | 0.0 | 0.9 | 0.00 | 0.00 | 0.00 | 85 | 1017.5 |
| 20260905132502 | 50 | 0 | 0.0 | 0.0 | 0.00 | 0.00 | 0.00 | 85 | 1017.4 |
| 20260905132002 | 50 | 0 | 0.0 | 0.0 | 0.00 | 0.00 | 0.00 | 85 | 1017.2 |
| 20260905131503 | 50 | 0 | 0.0 | 0.0 | 0.00 | 0.00 | 0.00 | 86 | 1017.2 |
| 20260905130502 | 50 | 0 | 0.0 | 0.0 | 0.00 | 0.00 | 0.00 | 86 | 1017.2 |
| 20260905125503 | 50 | 0 | 0.0 | 0.0 | 0.00 | 0.00 | 0.00 | 86 | 1017.2 |
| 20260905125003 | 50 | 0 | 0.0 | 0.0 | 0.00 | 0.00 | 0.00 | 86 | 1017.2 |
| 20260905124503 | 51 | 0 | 0.0 | 0.0 | 0.00 | 0.00 | 0.00 | 86 | 1017.2 |
| 20260905123503 | 51 | 0 | 0.0 | 0.0 | 0.00 | 0.00 | 0.00 | 86 | 1017.1 |
| 20260905123002 | 51 | 0 | 0.0 | 0.0 | 0.00 | 0.00 | 0.00 | 86 | 1017.2 |
| 20260905122503 | 51 | 0 | 0.0 | 0.0 | 0.00 | 0.00 | 0.00 | 85 | 1017.2 |
| 20260905122003 | 51 | 0 | 0.0 | 0.0 | 0.00 | 0.00 | 0.00 | 85 | 1017.2 |
| 20260905121502 | 51 | 0 | 0.0 | 0.0 | 0.00 | 0.00 | 0.00 | 84 | 1017.2 |
| 20260905121002 | 51 | 0 | 0.0 | 0.0 | 0.00 | 0.00 | 0.00 | 84 | 1017.3 |
| 20260905120503 | 51 | 0 | 0.0 | 0.0 | 0.00 | 0.00 | 0.00 | 84 | 1017.3 |
| 20260905120003 | 51 | 0 | 0.0 | 0.0 | 0.00 | 0.00 | 0.00 | 83 | 1017.3 |
| 20260905115502 | 51 | 0 | 0.0 | 0.0 | 0.00 | 0.00 | 0.00 | 83 | 1017.3 |
| 20260905115003 | 51 | 0 | 0.0 | 0.0 | 0.00 | 0.00 | 0.00 | 83 | 1017.4 |
| 20260905114502 | 51 | 0 | 0.0 | 0.0 | 0.00 | 0.00 | 0.00 | 83 | 1017.5 |
| 20260905114003 | 51 | 0 | 0.0 | 0.0 | 0.00 | 0.00 | 0.00 | 83 | 1017.3 |
| 20260905113502 | 52 | 0 | 0.0 | 0.0 | 0.00 | 0.00 | 0.00 | 83 | 1017.4 |
| 20260905113003 | 52 | 0 | 0.0 | 0.0 | 0.00 | 0.00 | 0.00 | 84 | 1017.4 |
| 20260905112003 | 52 | 0 | 0.0 | 0.0 | 0.00 | 0.00 | 0.00 | 84 | 1017.5 |
| 20260905111503 | 52 | 0 | 0.0 | 0.0 | 0.00 | 0.00 | 0.00 | 84 | 1017.4 |
| 20260905111002 | 52 | 58 | 0.0 | 0.9 | 0.00 | 0.00 | 0.00 | 84 | 1017.5 |
| 20260905104502 | 52 | 0 | 0.0 | 0.0 | 0.00 | 0.00 | 0.00 | 82 | 1017.6 |
| 20260905104003 | 52 | 0 | 0.0 | 0.0 | 0.00 | 0.00 | 0.00 | 82 | 1017.6 |
| 20260905103502 | 52 | 0 | 0.0 | 0.0 | 0.00 | 0.00 | 0.00 | 82 | 1017.6 |
| 20260905103003 | 52 | 57 | 0.0 | 0.9 | 0.00 | 0.00 | 0.00 | 82 | 1017.6 |
| 20260905102502 | 52 | 0 | 0.0 | 0.0 | 0.00 | 0.00 | 0.00 | 82 | 1017.5 |
| 20260905102002 | 52 | 57 | 0.0 | 0.9 | 0.00 | 0.00 | 0.00 | 82 | 1017.6 |
| 20260905101502 | 52 | 0 | 0.0 | 0.0 | 0.00 | 0.00 | 0.00 | 81 | 1017.5 |
| 20260905100503 | 52 | 56 | 0.0 | 0.9 | 0.00 | 0.00 | 0.00 | 82 | 1017.5 |
| 20260905100003 | 52 | 56 | 0.0 | 0.9 | 0.00 | 0.00 | 0.00 | 81 | 1017.6 |
| 20260905095503 | 52 | 49 | 0.0 | 0.9 | 0.00 | 0.00 | 0.00 | 81 | 1017.6 |
| 20260905095003 | 52 | 0 | 0.0 | 0.0 | 0.00 | 0.00 | 0.00 | 81 | 1017.6 |
| 20260905094502 | 52 | 0 | 0.0 | 0.0 | 0.00 | 0.00 | 0.00 | 80 | 1017.5 |
| 20260905093503 | 52 | 0 | 0.0 | 0.0 | 0.00 | 0.00 | 0.00 | 80 | 1017.5 |
| 20260905092003 | 53 | 0 | 0.0 | 0.0 | 0.00 | 0.00 | 0.00 | 79 | 1017.5 |
| 20260905091502 | 53 | 76 | 0.0 | 1.7 | 0.00 | 0.00 | 0.00 | 79 | 1017.4 |
| 20260905091003 | 53 | 0 | 0.0 | 0.0 | 0.00 | 0.00 | 0.00 | 79 | 1017.5 |
| 20260905090503 | 53 | 0 | 0.0 | 0.0 | 0.00 | 0.00 | 0.00 | 78 | 1017.5 |
| 20260905090003 | 53 | 0 | 0.0 | 0.0 | 0.00 | 0.00 | 0.00 | 78 | 1017.5 |
| 20260905085003 | 54 | 0 | 0.0 | 0.0 | 0.00 | 0.00 | 0.00 | 78 | 1017.7 |
| 20260905084503 | 54 | 0 | 0.0 | 0.0 | 0.00 | 0.00 | 0.00 | 78 | 1017.8 |
| 20260905084002 | 54 | 0 | 0.0 | 0.0 | 0.00 | 0.00 | 0.00 | 77 | 1017.8 |
| 20260905083503 | 54 | 0 | 0.0 | 0.0 | 0.00 | 0.00 | 0.00 | 78 | 1017.8 |
| 20260905083003 | 54 | 0 | 0.0 | 0.0 | 0.00 | 0.00 | 0.00 | 77 | 1017.9 |
| 20260905082503 | 54 | 0 | 0.0 | 0.0 | 0.00 | 0.00 | 0.00 | 76 | 1017.9 |
| 20260905082003 | 54 | 0 | 0.0 | 0.0 | 0.00 | 0.00 | 0.00 | 76 | 1017.9 |
| 20260905081503 | 54 | 0 | 0.0 | 0.0 | 0.00 | 0.00 | 0.00 | 75 | 1017.9 |
| 20260905081003 | 55 | 71 | 0.0 | 0.9 | 0.00 | 0.00 | 0.00 | 75 | 1017.9 |
| 20260905080503 | 55 | 0 | 0.0 | 0.0 | 0.00 | 0.00 | 0.00 | 75 | 1018.0 |
| 20260905080003 | 55 | 0 | 0.0 | 0.0 | 0.00 | 0.00 | 0.00 | 75 | 1017.9 |
| 20260905075003 | 55 | 0 | 0.0 | 0.0 | 0.00 | 0.00 | 0.00 | 76 | 1017.9 |
| 20260905074503 | 55 | 0 | 0.0 | 0.0 | 0.00 | 0.00 | 0.00 | 75 | 1017.8 |
| 20260905074002 | 56 | 0 | 0.0 | 0.0 | 0.00 | 0.00 | 0.00 | 75 | 1017.8 |
| 20260905073503 | 56 | 0 | 0.0 | 0.0 | 0.00 | 0.00 | 0.00 | 74 | 1017.8 |
| 20260905073003 | 56 | 71 | 0.0 | 0.9 | 0.00 | 0.00 | 0.00 | 74 | 1017.8 |
| 20260905072502 | 56 | 0 | 0.0 | 0.0 | 0.00 | 0.00 | 0.00 | 74 | 1017.8 |
| 20260905072003 | 56 | 72 | 0.0 | 0.9 | 0.00 | 0.00 | 0.00 | 73 | 1017.8 |
| 20260905071503 | 56 | 73 | 0.0 | 0.9 | 0.00 | 0.00 | 0.00 | 73 | 1017.8 |
| 20260905071002 | 56 | 0 | 0.0 | 0.0 | 0.00 | 0.00 | 0.00 | 72 | 1017.7 |
| 20260905065503 | 57 | 74 | 0.9 | 0.9 | 0.00 | 0.00 | 0.00 | 73 | 1017.7 |
| 20260905065003 | 57 | 71 | 0.9 | 1.7 | 0.00 | 0.00 | 0.00 | 73 | 1017.6 |
| 20260905064502 | 57 | 73 | 0.9 | 1.7 | 0.00 | 0.00 | 0.00 | 73 | 1017.7 |
| 20260905064003 | 57 | 73 | 0.9 | 1.7 | 0.00 | 0.00 | 0.00 | 72 | 1017.6 |
| 20260905063003 | 57 | 78 | 0.0 | 1.7 | 0.00 | 0.00 | 0.00 | 72 | 1017.5 |
| 20260905062502 | 57 | 0 | 0.9 | 0.0 | 0.00 | 0.00 | 0.00 | 72 | 1017.6 |
| 20260905061503 | 58 | 80 | 0.9 | 1.7 | 0.00 | 0.00 | 0.00 | 72 | 1017.7 |
| 20260905061003 | 58 | 78 | 0.0 | 1.7 | 0.00 | 0.00 | 0.00 | 71 | 1017.6 |
| 20260905060502 | 58 | 74 | 0.0 | 0.9 | 0.00 | 0.00 | 0.00 | 71 | 1017.6 |
| 20260905060003 | 58 | 74 | 0.9 | 0.9 | 0.00 | 0.00 | 0.00 | 71 | 1017.6 |
| 20260905055503 | 58 | 75 | 0.0 | 1.7 | 0.00 | 0.00 | 0.00 | 70 | 1017.5 |
| 20260905055003 | 59 | 77 | 0.0 | 0.9 | 0.00 | 0.00 | 0.00 | 70 | 1017.5 |
| 20260905054503 | 59 | 0 | 0.0 | 0.0 | 0.00 | 0.00 | 0.00 | 69 | 1017.5 |
| 20260905054003 | 59 | 0 | 0.0 | 0.0 | 0.00 | 0.00 | 0.00 | 69 | 1017.5 |
| 20260905053502 | 59 | 0 | 0.0 | 0.0 | 0.00 | 0.00 | 0.00 | 69 | 1017.5 |
| 20260905052503 | 60 | 0 | 0.0 | 0.0 | 0.00 | 0.00 | 0.00 | 68 | 1017.6 |
| 20260905052003 | 60 | 0 | 0.0 | 0.0 | 0.00 | 0.00 | 0.00 | 68 | 1017.7 |
| 20260905051503 | 60 | 77 | 0.0 | 0.9 | 0.00 | 0.00 | 0.00 | 68 | 1017.7 |
| 20260905051003 | 60 | 0 | 0.0 | 0.0 | 0.00 | 0.00 | 0.00 | 67 | 1017.7 |
| 20260905050503 | 61 | 0 | 0.0 | 0.0 | 0.00 | 0.00 | 0.00 | 67 | 1017.7 |
| 20260905050003 | 61 | 77 | 0.0 | 0.9 | 0.00 | 0.00 | 0.00 | 67 | 1017.7 |
| 20260905045504 | 61 | 80 | 0.0 | 0.9 | 0.00 | 0.00 | 0.00 | 67 | 1017.7 |
| 20260905045003 | 61 | 0 | 0.0 | 0.0 | 0.00 | 0.00 | 0.00 | 66 | 1017.6 |
| 20260905044504 | 62 | 0 | 0.0 | 0.0 | 0.00 | 0.00 | 0.00 | 66 | 1017.6 |
| 20260905044003 | 62 | 0 | 0.0 | 0.0 | 0.00 | 0.00 | 0.00 | 66 | 1017.6 |
| 20260905043503 | 62 | 0 | 0.0 | 0.0 | 0.00 | 0.00 | 0.00 | 66 | 1017.6 |
| 20260905043002 | 62 | 81 | 0.0 | 0.9 | 0.00 | 0.00 | 0.00 | 66 | 1017.6 |
| 20260905042503 | 62 | 80 | 0.0 | 0.9 | 0.00 | 0.00 | 0.00 | 66 | 1017.6 |
| 20260905042003 | 62 | 80 | 0.0 | 0.9 | 0.00 | 0.00 | 0.00 | 66 | 1017.5 |
| 20260905041003 | 63 | 81 | 0.0 | 0.9 | 0.00 | 0.00 | 0.00 | 65 | 1017.4 |
| 20260905040503 | 63 | 157 | 0.0 | 0.9 | 0.00 | 0.00 | 0.00 | 65 | 1017.4 |
| 20260905035503 | 63 | 0 | 0.0 | 0.0 | 0.00 | 0.00 | 0.00 | 64 | 1017.3 |
| 20260905035003 | 63 | 0 | 0.0 | 0.0 | 0.00 | 0.00 | 0.00 | 64 | 1017.2 |
| 20260905034503 | 64 | 0 | 0.0 | 0.0 | 0.00 | 0.00 | 0.00 | 64 | 1017.2 |
| 20260905034003 | 64 | 0 | 0.0 | 0.0 | 0.00 | 0.00 | 0.00 | 64 | 1017.1 |
| 20260905033503 | 64 | 0 | 0.0 | 0.0 | 0.00 | 0.00 | 0.00 | 64 | 1017.0 |
| 20260905032503 | 64 | 0 | 0.0 | 0.0 | 0.00 | 0.00 | 0.00 | 63 | 1016.8 |
| 20260905032003 | 64 | 169 | 0.0 | 0.9 | 0.00 | 0.00 | 0.00 | 63 | 1016.8 |